星链-6285 (STARLINK-6285 )

导读

STARLINK-6285是美国太空探索技术公司星链星座的组网卫星,于2023年5月4日发射。星链计划旨在构建全球卫星互联网,为全球偏远地区、高覆盖需求区域提供高速网络接入服务。该卫星延续星链系列设计,入轨后承担通信组网任务,进一步完善了星链低轨卫星互联网星座的全球覆盖能力。

基本信息
目录编号:
56405
目录名称:
STARLINK-6285
国际标识:
2023-061AH
轨道中心:
EARTH
卫星名称:
星链-6285
卫星全名:
星链-6285 (STARLINK-6285 )
卫星状态:
在轨 (已飞行1137 天)
发射日期:
2023-05-04 UTC
国别 :
美国 (US)
星等 :
--
轨道信息
数据来源 国际轨道数据 AOE轨道数据
星历时间 2026-06-14T14:08:06+0800
14小时前
查看轨道信息
2026-06-13T00:00:00+0800
2天前
查看轨道信息
半长轴 6861.205km 6861.155km
偏心率 0.0001264 0.0001607
轨道倾角 43.009° 43.006°
近地点辐角 266.757° 257.861°
升交点赤经 1.640° 10.614°
平近点角 93.314° 353.910°
近地点 482.2km 481.915km
远地点 483.936km 484.121km
周期 94.267分钟 94.266分钟
每日圈数 15.27574 15.275905
详细信息
固有亮度:
5
最大亮度:
2.5
卫星平台:
Starlink v1.5
覆盖范围:
全球
运营商:
太空探索技术公司
运营商所在国:
美国
制造商(研发单位):
太空探索技术公司
制造商所在国:
美国
使用方式:
暂无
卫星简介
星链(Starlink)计划是由太空探索技术公司(SpaceX)提出的一个巨型低轨卫星互联网星座项目,计划在2019年至2024年间在太空搭建由约1.2万颗卫星组成的“星链”网络,其中1584颗将部署在地球上空550千米处的近地轨道,并从2020年开始工作。该卫星仍在工作。
2D轨道图
3D轨道图
轨道高度分析图
轨道倾角分析图
轨道综合分析图
查看轨道综合分析图